[[{"header":{"parameterUnit":"m.s-1","parameterCategory":1,"la1":30.2991,"la2":30.254,"lo1":-89.0895,"lo2":-89.0444,"dy":0.0017,"dx":0.0017,"nx":28,"ny":28,"refTime":"2025-03-09T09:00:00:Z","depth":0,"parameterNumber":2,"parameterNumberName":"U-component_of_WINDS"},"data":[0,0,0,0,0,0,0,0,0,0,0,0,0,0,0,0,0,0,0,0,0,0,0,0,0,0,0,0,0,0,0,0,0,0,0,0,0,0,0,0,0,0,0,0,0,0,0,0,0,0,0,0,0,0,0,0,0,0,-2.2088,-2.2088,0,-2.2153,-2.2154,-2.2155,-2.2145,-2.2144,-2.2143,-2.2142,-2.2212,-2.2214,-2.2217,0,0,0,0,0,0,0,0,0,0,0,0,0,-2.1956,-2.1958,-2.2087,-2.2088,-2.2089,-2.2153,-2.2154,-2.2155,-2.2146,-2.2144,-2.2143,-2.2142,-2.2211,-2.2214,-2.2217,0,0,0,0,0,0,0,0,0,0,0,0,0,-2.2016,-2.1959,-2.2087,-2.2092,-2.2093,-2.2153,-2.2154,-2.2155,-2.2146,-2.2144,-2.2143,-2.2141,-2.221,-2.2214,-2.2218,-2.2278,0,0,-2.2231,-2.2233,0,0,0,0,0,0,0,0,-2.2013,-2.2021,-2.2091,-2.2092,-2.2093,-2.2139,-2.2133,-2.2196,-2.2146,-2.2126,-2.2142,-2.214,-2.2189,-2.2195,-2.2211,-2.2281,-2.2284,-2.2232,-2.2234,-2.2236,-2.2237,0,0,0,0,0,0,0,-2.2009,-2.2018,-2.2113,-2.2092,-2.2093,-2.2091,-2.2098,-2.2145,-2.2166,-2.2128,-2.2127,-2.2135,-2.2189,-2.2207,-2.2212,-2.2285,-2.2231,-2.2235,-2.2238,-2.224,-2.2407,-2.2409,0,0,0,0,0,0,-2.2003,-2.2015,-2.2111,-2.2115,-2.2048,-2.2095,-2.2103,-2.2126,-2.2165,-2.217,-2.2136,-2.2134,-2.22,-2.2207,-2.2215,-2.2288,-2.2236,-2.224,-2.2242,-2.2406,-2.2408,-2.241,0,0,0,0,0,0,-2.2,-2.2012,-2.2109,-2.2065,-2.2077,-2.2099,-2.2126,-2.2128,-2.2146,-2.2172,-2.2176,-2.215,-2.2199,-2.2209,-2.2262,-2.229,-2.2242,-2.2246,-2.2403,-2.2406,-2.2409,-2.2434,0,0,0,0,0,0,-2.1996,-2.2011,-2.2033,-2.2066,-2.208,-2.2154,-2.2127,-2.2131,-2.2153,-2.2151,-2.2186,-2.219,-2.2199,-2.2256,-2.2266,-2.2295,-2.2249,-2.2401,-2.2405,-2.2408,-2.2431,-2.2437,-2.2443,0,0,0,0,0,-2.1992,-2.2038,-2.2034,-2.2046,-2.2108,-2.2156,-2.2164,-2.2172,-2.2155,-2.2178,-2.2195,-2.2189,-2.2285,-2.2261,-2.2273,-2.2304,-2.2399,-2.2404,-2.2408,-2.2428,-2.2436,-2.2443,0,0,0,0,0,0,-2.2009,-2.2042,-2.2039,-2.2097,-2.2124,-2.2154,-2.2184,-2.218,-2.2213,-2.221,-2.2219,-2.2227,-2.2281,-2.2298,-2.2271,-2.2364,-2.234,-2.2347,-2.2351,-2.2359,-2.2365,-2.236,-2.2253,0,0,0,0,0,-2.202,-2.2055,-2.2083,-2.2131,-2.2145,-2.2162,-2.2183,-2.2187,-2.2215,-2.2227,-2.2248,-2.2276,-2.2312,-2.2336,-2.2371,-2.2432,-2.244,-2.2459,-2.2465,-2.247,-2.2476,-2.251,-2.2519,-2.2424,-2.2424,-2.2424,0,0,-2.2042,-2.2065,-2.2087,-2.2135,-2.2157,-2.2194,-2.2172,-2.2212,-2.224,-2.2233,-2.2285,-2.2301,-2.2333,-2.239,-2.2417,-2.2406,-2.2504,-2.2476,-2.2479,-2.2483,-2.2516,-2.2525,-2.2533,-2.2427,-2.2426,-2.2426,0,0,-2.2103,-2.2123,-2.2166,-2.2187,-2.2219,-2.223,-2.224,-2.2271,-2.2282,-2.2333,-2.2329,-2.2362,-2.2425,-2.2448,-2.2468,-2.2536,-2.2532,-2.2547,-2.258,-2.2612,-2.262,-2.2627,-2.2652,-2.2661,-2.2553,-2.2553,-2.2553,0,-2.2127,-2.2182,-2.2188,-2.2229,-2.2251,-2.2245,-2.2289,-2.231,-2.2352,-2.2368,-2.2354,-2.2432,-2.2454,-2.2517,-2.2533,-2.2549,-2.2562,-2.2544,-2.2618,-2.2625,-2.2632,-2.2656,-2.2665,-2.2555,-2.2555,-2.2554,-2.2554,0,-2.2211,-2.2249,-2.228,-2.232,-2.2345,-2.2387,-2.24,-2.2425,-2.2426,-2.2439,-2.2491,-2.2516,-2.2557,-2.2572,-2.2574,-2.2635,-2.2627,-2.2616,-2.2593,-2.2642,-2.2665,-2.2674,-2.2557,-2.2557,-2.2556,-2.2556,0,0,-2.2285,-2.2327,-2.2339,-2.2357,-2.2391,-2.2422,-2.2463,-2.2502,-2.2523,-2.2552,-2.2588,-2.264,-2.263,-2.2652,-2.2657,-2.2686,-2.2739,-2.2671,-2.2672,-2.2684,-2.2809,-2.2818,-2.2828,-2.2735,-2.2737,-2.2739,-2.2806,0,-2.235,-2.2423,-2.243,-2.2496,-2.2532,-2.2527,-2.2563,-2.2588,-2.2601,-2.2634,-2.2648,-2.2685,-2.2668,-2.2682,-2.271,-2.2726,-2.2764,-2.2721,-2.277,-2.2772,-2.2763,-2.284,-2.285,-2.2913,-2.2815,-2.2817,-2.2818,0,-2.2435,-2.2465,-2.2535,-2.2564,-2.258,-2.2612,-2.2648,-2.2679,-2.2707,-2.2715,-2.2739,-2.274,-2.2783,-2.2757,-2.2818,-2.2788,-2.2808,-2.2819,-2.2822,-2.2828,-2.2799,-2.2849,-2.2933,-2.2942,-2.2832,-2.283,-2.2829,0,-2.2483,-2.2542,-2.2591,-2.2607,-2.2642,-2.2665,-2.2681,-2.2708,-2.273,-2.2761,-2.2776,-2.2812,-2.2832,-2.286,-2.2871,-2.2851,-2.2931,-2.2906,-2.2939,-2.2939,-2.2958,-2.2957,-2.3047,-2.2969,-2.2968,-2.2968,-2.2968,0,-2.2555,-2.2598,-2.2614,-2.2644,-2.2692,-2.2699,-2.2747,-2.2762,-2.2785,-2.2819,-2.2816,-2.2848,-2.2859,-2.2893,-2.2901,-2.295,-2.2959,-2.2967,-2.2969,-2.2968,-2.2967,-2.2982,-2.2978,-2.2971,-2.297,-2.297,-2.2969,0,-2.2618,-2.263,-2.2684,-2.2712,-2.272,-2.2755,-2.2779,-2.2809,-2.282,-2.2863,-2.2873,-2.2892,-2.2931,-2.2944,-2.2991,-2.2997,-2.3055,-2.3052,-2.3045,-2.3046,-2.3079,-2.3076,-2.3183,-2.3197,-2.3109,-2.3109,-2.311,0,-2.2664,-2.2697,-2.2729,-2.2751,-2.2767,-2.2803,-2.2825,-2.2833,-2.2857,-2.2892,-2.2917,-2.2956,-2.2988,-2.3051,-2.3069,-2.3106,-2.3105,-2.314,-2.3111,-2.3108,-2.3107,-2.3105,-2.3109,-2.3146,-2.3147,-2.3147,-2.3148,0,-2.2744,-2.2748,-2.2781,-2.2816,-2.2843,-2.2871,-2.2897,-2.2916,-2.2927,-2.2955,-2.2994,-2.3019,-2.3067,-2.3106,-2.3143,-2.316,-2.3156,-2.3157,-2.3167,-2.3167,-2.3161,-2.3166,-2.3061,-2.3155,-2.3154,-2.3154,-2.3153,-2.3153,-2.2801,-2.283,-2.2857,-2.2893,-2.2914,-2.2939,-2.2968,-2.2983,-2.3016,-2.3055,-2.3058,-2.3101,-2.3129,-2.3178,-2.3196,-2.3231,-2.3221,-2.3235,-2.3239,-2.3243,-2.3246,-2.3155,-2.3237,-2.3237,-2.3237,-2.3237,-2.3237,0,-2.2882,-2.2898,-2.2932,-2.2969,-2.2998,-2.299,-2.302,-2.3044,-2.3082,-2.3108,-2.3139,-2.3184,-2.3222,-2.3242,-2.328,-2.3303,-2.3303,-2.3313,-2.3312,-2.3316,-2.3252,-2.324,-2.3313,-2.3313,-2.3313,-2.3313,-2.3313,-2.3313,-2.2927,-2.2976,-2.2983,-2.3043,-2.3059,-2.3101,-2.3118,-2.3141,-2.3162,-2.3213,-2.3244,-2.3256,-2.328,-2.3319,-2.3353,-2.3358,-2.3372,-2.3384,-2.3388,-2.3328,-2.332,-2.3313,-2.3302,-2.3387,-2.3387,-2.345,-2.345,-2.3451]},{"header":{"parameterUnit":"m.s-1","parameterCategory":1,"la1":30.2991,"la2":30.254,"lo1":-89.0895,"lo2":-89.0444,"dy":0.0017,"dx":0.0017,"nx":28,"ny":28,"refTime":"2025-03-09T09:00:00:Z","depth":0,"parameterNumber":3,"parameterNumberName":"V-component_of_WINDS"},"data":[0,0,0,0,0,0,0,0,0,0,0,0,0,0,0,0,0,0,0,0,0,0,0,0,0,0,0,0,0,0,0,0,0,0,0,0,0,0,0,0,0,0,0,0,0,0,0,0,0,0,0,0,0,0,0,0,0,0,-4.6384,-4.6384,0,-4.6401,-4.6401,-4.6401,-4.6351,-4.6349,-4.6348,-4.6346,-4.636,-4.6362,-4.6364,0,0,0,0,0,0,0,0,0,0,0,0,0,-4.6306,-4.6307,-4.6384,-4.6384,-4.6385,-4.6401,-4.6401,-4.6401,-4.6351,-4.6349,-4.6347,-4.6346,-4.636,-4.6362,-4.6364,0,0,0,0,0,0,0,0,0,0,0,0,0,-4.6333,-4.6308,-4.6384,-4.6362,-4.636,-4.6401,-4.6401,-4.6401,-4.6352,-4.6349,-4.6347,-4.6345,-4.6359,-4.6361,-4.6364,-4.6427,0,0,-4.6372,-4.6374,0,0,0,0,0,0,0,0,-4.6331,-4.6336,-4.6365,-4.6363,-4.6361,-4.6372,-4.6378,-4.641,-4.6352,-4.6355,-4.6346,-4.6344,-4.6366,-4.6368,-4.6376,-4.6427,-4.6428,-4.6373,-4.6374,-4.6375,-4.6376,0,0,0,0,0,0,0,-4.633,-4.6335,-4.6391,-4.6365,-4.6363,-4.635,-4.6351,-4.6384,-4.6373,-4.6354,-4.6351,-4.6353,-4.6364,-4.6373,-4.6376,-4.6428,-4.6373,-4.6375,-4.6377,-4.6378,-4.6534,-4.6536,0,0,0,0,0,0,-4.6331,-4.6333,-4.639,-4.6391,-4.634,-4.6353,-4.6354,-4.637,-4.6372,-4.637,-4.6355,-4.6351,-4.637,-4.6373,-4.6376,-4.6451,-4.6375,-4.6378,-4.6379,-4.6531,-4.6534,-4.6537,0,0,0,0,0,0,-4.633,-4.6337,-4.6389,-4.6361,-4.6367,-4.6357,-4.6375,-4.6372,-4.6381,-4.6373,-4.637,-4.6367,-4.6368,-4.6372,-4.6415,-4.645,-4.6379,-4.6382,-4.6528,-4.6532,-4.6536,-4.66,0,0,0,0,0,0,-4.6327,-4.6336,-4.6361,-4.6362,-4.6369,-4.6429,-4.6377,-4.6374,-4.6386,-4.6381,-4.6383,-4.6381,-4.6367,-4.6411,-4.6418,-4.6453,-4.6384,-4.6525,-4.653,-4.6534,-4.6595,-4.6606,-4.6615,0,0,0,0,0,-4.6325,-4.6377,-4.6362,-4.6369,-4.6399,-4.6431,-4.6435,-4.6418,-4.6389,-4.6413,-4.6408,-4.6381,-4.6445,-4.6416,-4.6423,-4.6459,-4.6523,-4.6529,-4.6534,-4.659,-4.6604,-4.6615,0,0,0,0,0,0,-4.6377,-4.6377,-4.636,-4.6414,-4.6424,-4.6423,-4.6453,-4.6432,-4.6448,-4.6442,-4.6419,-4.642,-4.6468,-4.6467,-4.6435,-4.6521,-4.6479,-4.6486,-4.6519,-4.6532,-4.6542,-4.6541,-4.6386,0,0,0,0,0,-4.6396,-4.6423,-4.642,-4.6468,-4.6474,-4.6463,-4.6476,-4.6462,-4.647,-4.6474,-4.6472,-4.648,-4.6502,-4.6517,-4.6536,-4.6594,-4.6595,-4.6623,-4.6633,-4.6641,-4.6648,-4.668,-4.6693,-4.6556,-4.6556,-4.6556,0,0,-4.6433,-4.6436,-4.6454,-4.6479,-4.6485,-4.6513,-4.6466,-4.6498,-4.6519,-4.6478,-4.6519,-4.6518,-4.6526,-4.6577,-4.6599,-4.6578,-4.6686,-4.6648,-4.6655,-4.6657,-4.6687,-4.67,-4.6712,-4.656,-4.6559,-4.6558,0,0,-4.6516,-4.6521,-4.6562,-4.657,-4.6579,-4.6572,-4.6582,-4.6585,-4.6583,-4.6624,-4.6595,-4.6619,-4.6657,-4.6664,-4.6672,-4.676,-4.6736,-4.6767,-4.682,-4.6851,-4.6862,-4.6871,-4.6904,-4.6916,-4.6773,-4.6774,-4.6774,0,-4.6561,-4.6604,-4.6586,-4.6621,-4.6633,-4.6599,-4.6641,-4.6648,-4.6663,-4.6672,-4.6648,-4.6697,-4.6699,-4.6752,-4.6774,-4.6781,-4.6792,-4.6767,-4.6862,-4.6871,-4.688,-4.6911,-4.6923,-4.6777,-4.6777,-4.6776,-4.6776,0,-4.6659,-4.669,-4.6722,-4.674,-4.6755,-4.6793,-4.678,-4.6798,-4.6783,-4.6778,-4.6821,-4.6823,-4.6843,-4.6855,-4.6839,-4.6906,-4.6893,-4.6866,-4.6824,-4.6897,-4.6926,-4.6937,-4.6783,-4.6781,-4.678,-4.6779,0,0,-4.6775,-4.6784,-4.6797,-4.6805,-4.6814,-4.6837,-4.6873,-4.6895,-4.6911,-4.6922,-4.6953,-4.6986,-4.6962,-4.6972,-4.6957,-4.6985,-4.7056,-4.6955,-4.6954,-4.6974,-4.7131,-4.7152,-4.7166,-4.704,-4.7042,-4.7044,-4.7131,0,-4.6858,-4.6923,-4.6909,-4.6972,-4.7,-4.6969,-4.7001,-4.701,-4.7006,-4.7029,-4.7024,-4.7049,-4.7014,-4.702,-4.7046,-4.7042,-4.7087,-4.7035,-4.7068,-4.7069,-4.7069,-4.7181,-4.7203,-4.7285,-4.7142,-4.7144,-4.7145,0,-4.6964,-4.6982,-4.7049,-4.7055,-4.7067,-4.7096,-4.7115,-4.7137,-4.7146,-4.7142,-4.7154,-4.7134,-4.717,-4.7127,-4.7177,-4.7142,-4.7154,-4.7154,-4.7157,-4.716,-4.7113,-4.7188,-4.7311,-4.7324,-4.7162,-4.7161,-4.716,0,-4.7044,-4.7085,-4.7131,-4.7139,-4.7146,-4.7168,-4.7172,-4.7179,-4.7194,-4.721,-4.7219,-4.7239,-4.725,-4.7265,-4.7251,-4.7221,-4.7303,-4.7259,-4.7301,-4.7301,-4.732,-4.7319,-4.7448,-4.7326,-4.7326,-4.7326,-4.7326,0,-4.7139,-4.7181,-4.7167,-4.7195,-4.7242,-4.7225,-4.7271,-4.7271,-4.7278,-4.7306,-4.7279,-4.7305,-4.7285,-4.7309,-4.7298,-4.7341,-4.7345,-4.7343,-4.734,-4.7346,-4.7347,-4.7355,-4.7349,-4.7329,-4.7328,-4.7328,-4.7327,0,-4.7236,-4.7228,-4.7277,-4.7281,-4.7283,-4.7318,-4.7321,-4.7347,-4.7342,-4.7377,-4.7384,-4.7376,-4.7403,-4.739,-4.7418,-4.7411,-4.7467,-4.7455,-4.7465,-4.7462,-4.7505,-4.7502,-4.7644,-4.7663,-4.7528,-4.753,-4.7531,0,-4.7298,-4.733,-4.7339,-4.7357,-4.7363,-4.7391,-4.7406,-4.739,-4.7407,-4.7421,-4.7446,-4.7471,-4.7491,-4.7535,-4.7531,-4.7553,-4.7542,-4.759,-4.7545,-4.7551,-4.7544,-4.7543,-4.7547,-4.76,-4.7601,-4.7603,-4.7604,0,-4.7409,-4.7404,-4.7428,-4.7451,-4.7471,-4.7488,-4.7502,-4.7518,-4.7502,-4.7523,-4.7551,-4.7567,-4.7596,-4.7622,-4.7641,-4.7644,-4.7622,-4.7618,-4.7629,-4.7637,-4.7641,-4.7641,-4.7491,-4.7615,-4.7614,-4.7613,-4.7612,-4.7612,-4.7491,-4.7519,-4.7531,-4.7559,-4.7568,-4.7583,-4.7609,-4.7608,-4.7632,-4.7656,-4.7644,-4.7678,-4.7687,-4.7711,-4.7717,-4.7742,-4.7723,-4.7739,-4.7743,-4.7748,-4.7754,-4.7637,-4.7745,-4.7745,-4.7745,-4.7745,-4.7744,0,-4.7602,-4.7608,-4.7634,-4.7657,-4.7679,-4.7658,-4.7673,-4.7693,-4.7723,-4.7734,-4.7755,-4.7788,-4.7813,-4.7811,-4.7834,-4.7855,-4.7846,-4.7862,-4.7861,-4.7862,-4.7769,-4.7758,-4.7869,-4.7869,-4.7869,-4.7869,-4.7869,-4.7869,-4.7662,-4.7709,-4.7706,-4.7758,-4.7763,-4.7798,-4.7809,-4.7822,-4.7831,-4.787,-4.7892,-4.7891,-4.7897,-4.7921,-4.7943,-4.7941,-4.7951,-4.7972,-4.7967,-4.7881,-4.7868,-4.7856,-4.7846,-4.7974,-4.7974,-4.8058,-4.8059,-4.8059]}]]